This is the latest recevied weather packets stored in our database for station/object N2XP-2. If no packets are shown the sender has not sent any weather packets the latest 10 day(s).
| Time | Temp. | Humidity | Pressure | Rain* | Wind** | Luminosity | Snow |
|---|---|---|---|---|---|---|---|
| 1777503504 | 13.33° C | 81% | 1011.1 hPa | 0 mm | 0 m/s | - | - |
| 1777503482 | 13.33° C | 82% | 1011.2 hPa | 0 mm | 0 m/s | - | - |
| 1777503422 | 13.33° C | 81% | 1011.1 hPa | 0 mm | 0 m/s | - | - |
| 1777503182 | 13.33° C | 82% | 1011.4 hPa | 0 mm | 0 m/s | - | - |
| 1777502883 | 13.33° C | 82% | 1011.5 hPa | 0 mm | 0.45 m/s, 162° | - | - |
| 1777502579 | 13.33° C | 82% | 1011.6 hPa | 0 mm | 0.45 m/s, 155° | - | - |
| 1777502280 | 13.33° C | 82% | 1011.4 hPa | 0 mm | 0.45 m/s, 236° | - | - |
| 1777502272 | 13.33° C | 81% | 1011.1 hPa | 0 mm | 0 m/s | - | - |
| 1777501981 | 13.33° C | 81% | 1011.1 hPa | 0 mm | 0 m/s | - | - |
| 1777501678 | 13.33° C | 81% | 1011 hPa | 0 mm | 0 m/s | - | - |
| 1777501506 | 13.33° C | 81% | 1011 hPa | 0 mm | 0.89 m/s, 197° | - | - |
| 1777501491 | 13.33° C | 81% | 1011.3 hPa | 0 mm | 0.45 m/s, 200° | - | - |
| 1777501379 | 13.89° C | 80% | 1011 hPa | 0 mm | 0 m/s | - | - |
| 1777501077 | 13.89° C | 80% | 1011.2 hPa | 0 mm | 0.45 m/s, 184° | - | - |
| 1777500773 | 13.89° C | 81% | 1011.2 hPa | 0 mm | 0.45 m/s, 226° | - | - |
| 1777500474 | 13.89° C | 81% | 1011 hPa | 0 mm | 0.45 m/s, 188° | - | - |
| 1777500173 | 13.33° C | 81% | 1011 hPa | 0 mm | 0.89 m/s, 197° | - | - |
| 1777499870 | 13.33° C | 81% | 1011.3 hPa | 0 mm | 0.45 m/s, 200° | - | - |
| 1777499572 | 13.33° C | 79% | 1011.3 hPa | 0 mm | 0 m/s | - | - |
| 1777499571 | 13.33° C | 81% | 1011.3 hPa | 0 mm | 0.89 m/s, 125° | - | - |
| 1777499570 | 13.89° C | 78% | 1011.5 hPa | 0 mm | 1.34 m/s, 142° | - | - |
| 1777499272 | 13.33° C | 81% | 1011.3 hPa | 0 mm | 0.45 m/s, 115° | - | - |
| 1777498968 | 13.33° C | 80% | 1011.2 hPa | 0 mm | 0 m/s | - | - |
| 1777498669 | 13.33° C | 80% | 1011 hPa | 0 mm | 0.89 m/s, 98° | - | - |
| 1777498369 | 13.33° C | 80% | 1011 hPa | 0 mm | 0 m/s | - | - |
* Rain latest hour (hover to see other rain measurements)
** Current wind speed in m/s (hover to see current wind gust speed)